User: anonymous   Login
Location: Unspecified
(0.0000°N, 0.0000°E)
Time: 09:10:36
(UTC+00:00)
Language:

Interbol-2 - Orbit

View from above orbital plane
View from above orbital plane
View from above satellite
View from above satellite

Ground track
Ground track

The orbit data is extracted from the following two-line orbital elements,

1 24292U 96050B   18051.67475483 -.00000009  00000-0  00000+0 0  9997
2 24292  63.5168 130.1205 5266999 237.0187 301.0700  4.14704964325332
Epoch (UTC): 20 February 2018 16:11:38
Eccentricity: 0.5266999
inclination: 63.5168°
perigee height: 1367 km
apogee height: 18606 km
right ascension of ascending node: 130.1205°
argument of perigee: 237.0187°
revolutions per day: 4.14704964
mean anomaly at epoch: 301.0700°
orbit number at epoch: 32533

The dashed part of the orbit path shows where the satellite is in the earth's shadow,  

DLR